Flag for United Kingdom Weather past 2 weeks in Slough, England, United Kingdom

Now
45 °F

Passing clouds.


Feels Like: 38 °F
Forecast: 43 / 53 °F
Wind: 13 mph from West

Location: London City Airport

Current Time: Mar 30, 2015 at 7:54:09 AM

Latest Report: Mar 30, 2015 at 7:20 AM


Visibility: N/A

Pressure: 29.74 "Hg

Humidity: 66%

Dew point: 34 °F

Location of SloughLocation

Historic Weather in Slough — Graph

°F

Slough temperature yesterday

Maximum temperature yesterday: 57 °F (at 2:50 PM)
Minimum temperature yesterday: 50 °F (at 2:50 AM)
Average temperature yesterday: 52 °F

Past Weeks' High & Low Weather Summary

 TemperatureHumidityPressure
High57 °F (Mar 28, 11:20 AM)100% (Mar 17, 3:50 AM)30.54 "Hg (Mar 17, 3:50 AM)
Low36 °F (Mar 25, 6:20 AM)40% (Mar 25, 5:20 PM)29.33 "Hg (Mar 29, 2:20 PM)
Average46 °F74%30.08 "Hg
* Reported Mar 15 5:20 AM — Mar 30 6:20 AM, Slough, Weather by CustomWeather, © 2015

Note: Actual official high and low records may vary slightly from our data, if they occured in-between our weather recording intervals... More about our weather records

Advertising

Slough weather history for previous 24 hours

 ConditionsComfort  
Time TempWeatherWind HumidityBarometerVisibility
6:20 AM
Mon, Mar 30
45 °FClear.17 mph66%29.71 "Hg10 mi
5:50 AM46 °FCool.17 mph66%29.68 "HgN/A
5:20 AM46 °FCool.17 mph66%29.68 "HgN/A
4:50 AM46 °FCool.20 mph66%29.65 "HgN/A
4:20 AM46 °FCool.20 mph66%29.62 "HgN/A
3:50 AM46 °FPassing clouds.14 mph71%29.62 "HgN/A
3:20 AM46 °FPassing clouds.15 mph76%29.62 "HgN/A
2:50 AM46 °FPassing clouds.15 mph76%29.62 "HgN/A
2:20 AM46 °FPassing clouds.13 mph76%29.59 "HgN/A
1:50 AM48 °FPassing clouds.16 mph71%29.59 "HgN/A
1:20 AM48 °FPassing clouds.18 mph76%29.59 "HgN/A
12:50 AM48 °FPassing clouds.21 mph76%29.59 "HgN/A
12:20 AM48 °FPassing clouds.17 mph76%29.56 "HgN/A
11:50 PM
Sun, Mar 29
50 °FCool.16 mph71%29.53 "HgN/A
11:20 PM50 °FPassing clouds.15 mph76%29.53 "HgN/A
10:50 PM50 °FCool.16 mph71%29.53 "HgN/A
10:20 PM50 °FCool.18 mph71%29.53 "HgN/A
9:50 PM50 °FClear.18 mph76%29.50 "Hg10 mi
9:20 PM50 °FClear.16 mph82%29.50 "Hg10 mi
8:50 PM50 °FPassing clouds.18 mph76%29.50 "HgN/A
8:20 PM50 °FScattered clouds.18 mph76%29.50 "HgN/A
7:50 PM50 °FSleet. Broken clouds.22 mph82%29.47 "HgN/A
7:20 PM52 °FMixture of precip. Broken clouds.21 mph72%29.47 "HgN/A
6:50 PM54 °FPassing clouds.18 mph58%29.45 "HgN/A
6:20 PM54 °FPassing clouds.28 mph54%29.45 "HgN/A
5:50 PM55 °FPassing clouds.23 mph55%29.42 "HgN/A
5:20 PM55 °FPassing clouds.28 mph55%29.42 "HgN/A
4:50 PM55 °FPassing clouds.21 mph67%29.39 "HgN/A
4:20 PM54 °FLight rain. Broken clouds.28 mph72%29.36 "HgN/A
3:50 PM57 °FScattered clouds.28 mph63%29.33 "HgN/A
3:20 PM57 °FScattered clouds.31 mph67%29.33 "HgN/A
2:50 PM57 °FBroken clouds.30 mph72%29.33 "HgN/A
2:20 PM55 °FSprinkles. Broken clouds.29 mph82%29.33 "HgN/A
1:50 PM55 °FBroken clouds.24 mph88%29.36 "HgN/A
1:20 PM54 °FSprinkles. Partly sunny.24 mph94%29.36 "Hg4 mi
12:50 PM55 °FLight rain. Partly sunny.23 mph82%29.36 "Hg6 mi
12:20 PM55 °FSprinkles. Broken clouds.21 mph82%29.39 "HgN/A
11:50 AM55 °FSprinkles. Broken clouds.20 mph82%29.39 "Hg5 mi
11:20 AM55 °FLight rain. Broken clouds.18 mph82%29.42 "HgN/A
10:50 AM54 °FLight rain. Broken clouds.20 mph88%29.45 "Hg4 mi
10:20 AM54 °FLight rain. Broken clouds.18 mph88%29.45 "HgN/A
9:50 AM54 °FLight rain. Broken clouds.17 mph88%29.47 "Hg5 mi
9:20 AM52 °FRain. Partly sunny.14 mph94%29.50 "HgN/A
8:50 AM50 °FLight rain. Partly sunny.8 mph94%29.53 "Hg2 mi
8:20 AM50 °FDrizzle. Broken clouds.10 mph88%29.56 "HgN/A
7:50 AM50 °FLight rain. Scattered clouds.12 mph88%29.59 "HgN/A
7:20 AM50 °FLight rain. Partly cloudy.13 mph88%29.59 "Hg5 mi
Weather by CustomWeather, © 2015

See weather overviewHow to use our weather pages